START_TIME,STEP,MOV.,M6,t_acc.,M7,t_acc.,M19,t_acc.,H36,t_acc.
1979-07-19 06:00:26.970 ,0,1,0.,12.0,0.,12.0,0.,12.0,0.,12.0
1979-07-19 06:00:38.970 ,0,1,0.,12.0,0.,12.0,0.,12.0,0.,12.0
1979-07-19 06:00:50.970 ,3,1,0.,12.0,0.,12.0,0.,12.0,0.,12.0
1979-07-19 06:01:02.970 ,3,1,0.,12.0,0.,12.0,0.,12.0,0.,12.0
1979-07-19 06:01:14.970 ,7,1,0.,12.0,0.,12.0,0.,12.0,0.,12.0
1979-07-19 06:01:26.970 ,7,1,0.,12.0,0.,12.0,0.,12.0,0.,12.0
1979-07-19 06:01:38.970 ,4,1,0.,12.0,0.,12.0,0.,12.0,0.,12.0
1979-07-19 06:01:50.970 ,4,1,0.,12.0,0.,12.0,0.,12.0,0.,12.0
1979-07-19 06:02:02.970 ,0,1,0.,12.0,0.,12.0,0.,12.0,0.,12.0
1979-07-19 06:02:14.970 ,0,1,0.,12.0,0.,12.0,0.,12.0,0.,12.0
1979-07-19 06:03:14.970 ,0,0,0.,12.0,0.,12.0,0.,12.0,0.,12.0
1979-07-19 06:03:26.970 ,0,0,0.,12.0,0.,12.0,0.,12.0,0.,12.0
1979-07-19 06:03:38.970 ,0,1,0.,12.0,0.,12.0,0.,12.0,0.,12.0
1979-07-19 06:03:50.970 ,0,1,0.,12.0,0.,12.0,0.,12.0,0.,12.0
1979-07-19 06:04:02.970 ,3,1,0.,12.0,0.,12.0,0.,12.0,0.,12.0
1979-07-19 06:04:14.970 ,3,1,0.,12.0,0.,12.0,0.,12.0,0.,12.0
1979-07-19 06:04:26.970 ,7,1,0.,12.0,0.,12.0,0.,12.0,0.,12.0
1979-07-19 06:04:38.970 ,7,1,0.,12.0,0.,12.0,0.,12.0,0.,12.0
1979-07-19 06:04:50.970 ,4,1,0.,12.0,0.,12.0,0.,12.0,0.,12.0
1979-07-19 06:05:02.970 ,4,1,0.,12.0,0.,12.0,0.,12.0,0.,12.0
1979-07-19 06:05:14.970 ,0,1,0.,12.0,0.,12.0,0.,12.0,0.,12.0
1979-07-19 06:05:26.970 ,0,1,0.,12.0,0.,12.0,0.,12.0,0.,12.0
1979-07-19 06:05:38.970 ,0,0,0.,12.0,0.,12.0,0.,12.0,0.,12.0
1979-07-19 06:05:50.970 ,0,0,0.,12.0,0.,12.0,0.,12.0,0.,12.0
1979-07-19 06:06:02.970 ,0,0,0.,12.0,0.,12.0,0.,12.0,0.,12.0
1979-07-19 06:06:14.970 ,0,0,0.,12.0,0.,12.0,0.,12.0,0.,12.0
1979-07-19 06:06:26.970 ,5,1,0.,12.0,0.,12.0,0.,12.0,0.,12.0
1979-07-19 06:06:38.970 ,5,1,0.,12.0,0.,12.0,0.,12.0,0.,12.0
1979-07-19 06:06:50.970 ,5,0,0.,12.0,0.,12.0,0.,12.0,0.,12.0
1979-07-19 06:07:02.970 ,5,0,0.,12.0,0.,12.0,0.,12.0,0.,12.0
1979-07-19 06:07:14.970 ,4,1,0.,12.0,0.,12.0,0.,12.0,0.,12.0
1979-07-19 06:07:26.970 ,4,1,0.,12.0,0.,12.0,0.,12.0,0.,12.0
1979-07-19 06:07:38.970 ,4,0,0.,12.0,0.,12.0,0.,12.0,0.,12.0
1979-07-19 06:07:50.970 ,4,0,0.,12.0,0.,12.0,0.,12.0,0.,12.0
1979-07-19 06:08:02.970 ,3,1,0.,12.0,0.,12.0,0.,12.0,0.,12.0
1979-07-19 06:08:14.970 ,3,1,0.,12.0,0.,12.0,0.,12.0,0.,12.0
1979-07-19 06:08:26.970 ,3,0,0.,12.0,0.,12.0,0.,12.0,0.,12.0
1979-07-19 06:08:38.970 ,3,0,0.,12.0,0.,12.0,0.,12.0,0.,12.0
1979-07-19 06:08:50.970 ,2,1,0.,12.0,0.,12.0,0.,12.0,0.,12.0
1979-07-19 06:09:02.970 ,2,1,0.,12.0,0.,12.0,0.,12.0,0.,12.0
1979-07-19 06:09:14.970 ,2,0,0.,12.0,0.,12.0,0.,12.0,0.,12.0
1979-07-19 06:09:26.970 ,2,0,0.,12.0,0.,12.0,0.,12.0,0.,12.0
1979-07-19 06:09:38.970 ,1,1,0.,12.0,0.,12.0,0.,12.0,0.,12.0
1979-07-19 06:09:50.970 ,1,1,0.,12.0,0.,12.0,0.,12.0,0.,12.0
1979-07-19 06:10:02.970 ,1,0,0.,12.0,0.,12.0,0.,12.0,0.,12.0
1979-07-19 06:10:14.970 ,1,0,0.,12.0,0.,12.0,0.,12.0,0.,12.0
1979-07-19 06:10:26.970 ,0,1,0.,12.0,0.,12.0,0.,12.0,0.,12.0
1979-07-19 06:10:38.970 ,0,1,0.,12.0,0.,12.0,0.,12.0,0.,12.0
1979-07-19 06:10:50.970 ,0,0,0.,12.0,0.,12.0,0.,12.0,0.,12.0
1979-07-19 06:11:02.970 ,0,0,0.,12.0,0.,12.0,0.,12.0,0.,12.0
1979-07-19 06:11:14.970 ,0,1,0.,12.0,0.,12.0,0.,12.0,0.,12.0
1979-07-19 06:11:26.970 ,0,1,0.,12.0,0.,12.0,0.,12.0,0.,12.0
1979-07-19 06:11:38.970 ,0,0,0.,12.0,0.,12.0,0.,12.0,0.,12.0
1979-07-19 06:11:50.970 ,0,0,0.,12.0,0.,12.0,0.,12.0,0.,12.0
1979-07-19 06:12:02.970 ,1,1,0.,12.0,0.,12.0,0.,12.0,0.,12.0
1979-07-19 06:12:14.970 ,1,1,0.,12.0,0.,12.0,0.,12.0,0.,12.0
1979-07-19 06:12:26.970 ,1,0,0.,12.0,0.,12.0,0.,12.0,0.,12.0
1979-07-19 06:12:38.970 ,1,0,0.,12.0,0.,12.0,0.,12.0,0.,12.0
1979-07-19 06:12:50.970 ,2,1,0.,12.0,0.,12.0,0.,12.0,0.,12.0
1979-07-19 06:13:02.970 ,2,1,0.,12.0,0.,12.0,0.,12.0,0.,12.0
1979-07-19 06:13:14.970 ,2,0,0.,12.0,0.,12.0,0.,12.0,0.,12.0
1979-07-19 06:13:26.970 ,2,0,0.,12.0,0.,12.0,0.,12.0,0.,12.0
1979-07-19 06:19:14.970 ,0,0,0.,12.0,0.,12.0,0.,12.0,0.,12.0
1979-07-19 06:19:26.970 ,0,0,0.,12.0,0.,12.0,0.,12.0,0.,12.0
1979-07-19 06:19:38.970 ,0,0,0.,12.0,0.,12.0,0.,12.0,0.,12.0
1979-07-19 06:19:50.970 ,0,0,0.,12.0,0.,12.0,0.,12.0,0.,12.0
1979-07-19 06:20:02.970 ,4,1,0.,12.0,0.,12.0,0.,12.0,0.,12.0
1979-07-19 06:20:14.970 ,4,1,0.,12.0,0.,12.0,0.,12.0,0.,12.0
1979-07-19 06:20:26.970 ,4,0,0.,12.0,0.,12.0,0.,12.0,0.,12.0
1979-07-19 06:20:38.970 ,4,0,,0,,0,,0,,0
1979-07-19 06:20:50.970 ,3,1,0.,12.0,0.,12.0,0.,12.0,0.,12.0
1979-07-19 06:21:02.970 ,3,1,0.,12.0,0.,12.0,0.,12.0,0.,12.0
1979-07-19 06:21:14.970 ,3,0,0.,12.0,0.,12.0,0.,12.0,0.,12.0
1979-07-19 06:21:26.970 ,3,0,0.,12.0,0.,12.0,0.,12.0,0.,12.0
1979-07-19 06:21:38.970 ,2,1,0.,12.0,0.,12.0,0.,12.0,0.,12.0
1979-07-19 06:21:50.970 ,2,1,0.,12.0,0.,12.0,0.,12.0,0.,12.0
1979-07-19 06:22:02.970 ,2,0,0.,12.0,0.,12.0,0.,12.0,1.,12.0
1979-07-19 06:22:14.970 ,2,0,0.,12.0,0.,12.0,0.,12.0,0.,12.0
1979-07-19 06:22:26.970 ,1,1,0.,12.0,0.,12.0,0.,12.0,0.,12.0
1979-07-19 06:22:38.970 ,1,1,0.,12.0,0.,12.0,0.,12.0,0.,12.0
1979-07-19 06:22:50.970 ,1,0,0.,12.0,0.,12.0,0.,12.0,0.,12.0
1979-07-19 06:23:02.970 ,1,0,0.,12.0,0.,12.0,0.,12.0,0.,12.0
1979-07-19 06:23:14.970 ,0,1,1.,12.0,0.,12.0,0.,12.0,0.,12.0
1979-07-19 06:23:26.970 ,0,1,0.,12.0,0.,12.0,0.,12.0,0.,12.0
1979-07-19 06:23:38.970 ,0,0,0.,12.0,0.,12.0,0.,12.0,0.,12.0
1979-07-19 06:23:50.970 ,0,0,0.,12.0,0.,12.0,0.,12.0,0.,12.0
1979-07-19 06:24:02.970 ,0,1,0.,12.0,0.,12.0,0.,12.0,0.,12.0
1979-07-19 06:24:14.970 ,0,1,0.,12.0,0.,12.0,0.,12.0,0.,12.0
1979-07-19 06:24:26.970 ,0,0,0.,12.0,0.,12.0,0.,12.0,0.,12.0
1979-07-19 06:24:38.970 ,0,0,0.,12.0,0.,12.0,0.,12.0,0.,12.0
1979-07-19 06:24:50.970 ,1,1,0.,12.0,0.,12.0,0.,12.0,0.,12.0
1979-07-19 06:25:02.970 ,1,1,0.,12.0,0.,12.0,0.,12.0,0.,12.0
1979-07-19 06:25:14.970 ,1,0,0.,12.0,0.,12.0,0.,12.0,0.,12.0
1979-07-19 06:25:26.970 ,1,0,0.,12.0,0.,12.0,0.,12.0,0.,12.0
1979-07-19 06:25:38.970 ,2,1,0.,12.0,0.,12.0,0.,12.0,0.,12.0
1979-07-19 06:25:50.970 ,2,1,0.,12.0,0.,12.0,0.,12.0,0.,12.0
1979-07-19 06:26:02.970 ,2,0,0.,12.0,0.,12.0,0.,12.0,0.,12.0
1979-07-19 06:26:14.970 ,2,0,0.,12.0,0.,12.0,0.,12.0,0.,12.0
1979-07-19 06:26:26.970 ,3,1,0.,12.0,0.,12.0,0.,12.0,0.,12.0
1979-07-19 06:26:38.970 ,3,1,0.,12.0,0.,12.0,0.,12.0,0.,12.0
1979-07-19 06:26:50.970 ,3,0,0.,12.0,0.,12.0,0.,12.0,0.,12.0
1979-07-19 06:27:02.970 ,3,0,0.,12.0,0.,12.0,0.,12.0,0.,12.0
1979-07-19 06:27:14.970 ,4,1,0.,12.0,0.,12.0,0.,12.0,0.,12.0
1979-07-19 06:27:26.970 ,4,1,0.,12.0,0.,12.0,0.,12.0,0.,12.0
1979-07-19 06:27:38.970 ,4,0,0.,12.0,0.,12.0,0.,12.0,0.,12.0
1979-07-19 06:27:50.970 ,4,0,0.,12.0,0.,12.0,0.,12.0,0.,12.0
1979-07-19 06:28:02.970 ,5,1,0.,12.0,0.,12.0,0.,12.0,0.,12.0
1979-07-19 06:28:14.970 ,5,1,0.,12.0,0.,12.0,0.,12.0,0.,12.0
1979-07-19 06:28:26.970 ,5,0,0.,12.0,0.,12.0,0.,12.0,0.,12.0
1979-07-19 06:28:38.970 ,5,0,0.,12.0,0.,12.0,0.,12.0,0.,12.0
1979-07-19 06:28:50.970 ,6,1,0.,12.0,0.,12.0,0.,12.0,0.,12.0
1979-07-19 06:29:02.970 ,6,1,0.,12.0,0.,12.0,0.,12.0,0.,12.0
1979-07-19 06:29:14.970 ,6,0,0.,12.0,0.,12.0,0.,12.0,0.,12.0
1979-07-19 06:29:26.970 ,6,0,0.,12.0,0.,12.0,0.,12.0,0.,12.0
1979-07-19 06:29:38.970 ,7,1,0.,12.0,0.,12.0,0.,12.0,0.,12.0
1979-07-19 06:29:50.970 ,7,1,0.,12.0,0.,12.0,0.,12.0,0.,12.0
1979-07-19 06:30:02.970 ,7,0,0.,12.0,0.,12.0,0.,12.0,0.,12.0
1979-07-19 06:30:14.970 ,7,0,0.,12.0,0.,12.0,0.,12.0,0.,12.0
1979-07-19 06:30:26.970 ,7,1,0.,12.0,0.,12.0,0.,12.0,0.,12.0
1979-07-19 06:30:38.970 ,7,1,0.,12.0,0.,12.0,0.,12.0,0.,12.0
1979-07-19 06:30:50.970 ,7,0,0.,12.0,0.,12.0,0.,12.0,0.,12.0
1979-07-19 06:31:02.970 ,7,0,0.,12.0,0.,12.0,0.,12.0,0.,12.0
1979-07-19 06:31:14.970 ,6,1,0.,12.0,0.,12.0,0.,12.0,0.,12.0
1979-07-19 06:31:26.970 ,6,1,0.,12.0,0.,12.0,0.,12.0,0.,12.0
1979-07-19 06:31:38.970 ,6,0,0.,12.0,0.,12.0,0.,12.0,0.,12.0
1979-07-19 06:31:50.970 ,6,0,0.,12.0,0.,12.0,0.,12.0,0.,12.0
1979-07-19 06:32:02.970 ,5,1,0.,12.0,0.,12.0,0.,12.0,0.,12.0
1979-07-19 06:32:14.970 ,5,1,0.,12.0,0.,12.0,0.,12.0,0.,12.0
1979-07-19 06:32:26.970 ,0,0,,0,,0,,0,,0
1979-07-19 06:32:38.970 ,0,0,,0,,0,,0,,0
1979-07-19 06:32:39.570 ,0,0,,0,,0,,0,,0
1979-07-19 06:32:51.570 ,0,0,0.,12.0,0.,12.0,0.,12.0,0.,12.0
1979-07-19 06:33:38.970 ,0,0,0.,12.0,0.,12.0,0.,12.0,0.,12.0
1979-07-19 06:33:50.970 ,0,0,0.,12.0,0.,12.0,0.,12.0,0.,12.0
1979-07-19 06:34:02.970 ,0,0,0.,12.0,0.,12.0,0.,12.0,0.,12.0
1979-07-19 06:34:14.970 ,0,0,0.,12.0,0.,12.0,0.,12.0,0.,12.0
1979-07-19 06:34:26.970 ,2,1,0.,12.0,0.,12.0,0.,12.0,0.,12.0
1979-07-19 06:34:38.970 ,2,1,0.,12.0,0.,12.0,0.,12.0,0.,12.0
1979-07-19 06:34:50.970 ,2,0,0.,12.0,0.,12.0,0.,12.0,0.,12.0
1979-07-19 06:35:02.970 ,2,0,0.,12.0,0.,12.0,0.,12.0,0.,12.0
1979-07-19 06:35:14.970 ,1,1,0.,12.0,0.,12.0,0.,12.0,0.,12.0
1979-07-19 06:35:26.970 ,1,1,0.,12.0,0.,12.0,0.,12.0,0.,12.0
1979-07-19 06:35:38.970 ,1,0,0.,12.0,0.,12.0,0.,12.0,0.,12.0
1979-07-19 06:35:50.970 ,1,0,0.,12.0,0.,12.0,0.,12.0,0.,12.0
1979-07-19 06:36:02.970 ,0,1,0.,12.0,0.,12.0,0.,12.0,0.,12.0
1979-07-19 06:36:14.970 ,0,1,0.,12.0,0.,12.0,0.,12.0,0.,12.0
1979-07-19 06:36:26.970 ,0,0,0.,12.0,0.,12.0,0.,12.0,0.,12.0
1979-07-19 06:36:38.970 ,0,0,0.,12.0,0.,12.0,0.,12.0,0.,12.0
1979-07-19 06:36:50.970 ,0,1,0.,12.0,0.,12.0,0.,12.0,0.,12.0
1979-07-19 06:37:02.970 ,0,1,0.,12.0,0.,12.0,0.,12.0,0.,12.0
1979-07-19 06:37:14.970 ,0,0,0.,12.0,0.,12.0,0.,12.0,0.,12.0
1979-07-19 06:37:26.970 ,0,0,0.,12.0,0.,12.0,0.,12.0,0.,12.0
1979-07-19 06:37:38.970 ,1,1,0.,12.0,0.,12.0,0.,12.0,0.,12.0
1979-07-19 06:37:50.970 ,1,1,0.,12.0,0.,12.0,0.,12.0,0.,12.0
1979-07-19 06:38:02.970 ,1,0,0.,12.0,0.,12.0,0.,12.0,0.,12.0
1979-07-19 06:38:14.970 ,1,0,0.,12.0,0.,12.0,0.,12.0,0.,12.0
1979-07-19 06:38:26.970 ,2,1,0.,12.0,0.,12.0,0.,12.0,0.,12.0
1979-07-19 06:38:38.970 ,2,1,0.,12.0,0.,12.0,0.,12.0,0.,12.0
1979-07-19 06:38:50.970 ,2,0,0.,12.0,0.,12.0,0.,12.0,0.,12.0
1979-07-19 06:39:02.970 ,2,0,0.,12.0,0.,12.0,0.,12.0,0.,12.0
1979-07-19 06:39:14.970 ,3,1,0.,12.0,0.,12.0,0.,12.0,0.,12.0
1979-07-19 06:39:26.970 ,3,1,0.,12.0,0.,12.0,0.,12.0,0.,12.0
1979-07-19 06:39:38.970 ,3,0,0.,12.0,0.,12.0,0.,12.0,0.,12.0
1979-07-19 06:39:50.970 ,3,0,0.,12.0,0.,12.0,0.,12.0,0.,12.0
1979-07-19 06:40:02.970 ,4,1,0.,12.0,0.,12.0,0.,12.0,0.,12.0
1979-07-19 06:40:14.970 ,4,1,0.,12.0,0.,12.0,0.,12.0,0.,12.0
1979-07-19 06:40:26.970 ,4,0,0.,12.0,0.,12.0,0.,12.0,0.,12.0
1979-07-19 06:40:38.970 ,4,0,0.,12.0,0.,12.0,0.,12.0,0.,12.0
1979-07-19 06:40:50.970 ,5,1,0.,12.0,0.,12.0,0.,12.0,0.,12.0
1979-07-19 06:41:02.970 ,5,1,0.,12.0,0.,12.0,0.,12.0,0.,12.0
1979-07-19 06:41:14.970 ,5,0,0.,12.0,0.,12.0,0.,12.0,0.,12.0
1979-07-19 06:41:26.970 ,5,0,0.,12.0,0.,12.0,0.,12.0,0.,12.0
1979-07-19 06:41:38.970 ,6,1,0.,12.0,0.,12.0,0.,12.0,0.,12.0
1979-07-19 06:41:50.970 ,6,1,0.,12.0,0.,12.0,0.,12.0,0.,12.0
1979-07-19 06:42:02.970 ,6,0,0.,12.0,0.,12.0,0.,12.0,0.,12.0
1979-07-19 06:42:14.970 ,6,0,1.,12.0,0.,12.0,0.,12.0,0.,12.0
1979-07-19 06:42:26.970 ,7,0,0.,12.0,0.,12.0,0.,12.0,0.,12.0
1979-07-19 06:42:38.970 ,7,0,0.,12.0,0.,12.0,0.,12.0,0.,12.0
1979-07-19 06:42:50.970 ,7,0,0.,12.0,0.,12.0,0.,12.0,0.,12.0
1979-07-19 06:43:02.970 ,7,0,0.,12.0,0.,12.0,0.,12.0,0.,12.0
1979-07-19 06:43:14.970 ,4,1,0.,12.0,0.,12.0,0.,12.0,0.,12.0
1979-07-19 06:43:26.970 ,4,1,0.,12.0,0.,12.0,0.,12.0,0.,12.0
1979-07-19 06:43:38.970 ,0,1,0.,12.0,0.,12.0,0.,12.0,0.,12.0
1979-07-19 06:43:50.970 ,0,1,0.,12.0,0.,12.0,0.,12.0,0.,12.0
1979-07-19 06:44:50.970 ,0,0,0.,12.0,0.,12.0,0.,12.0,0.,12.0
1979-07-19 06:45:02.970 ,0,0,0.,12.0,0.,12.0,0.,12.0,0.,12.0
1979-07-19 06:45:14.970 ,0,1,0.,12.0,0.,12.0,0.,12.0,0.,12.0
1979-07-19 06:45:26.970 ,0,1,0.,12.0,0.,12.0,0.,12.0,0.,12.0
1979-07-19 06:45:38.970 ,3,1,0.,12.0,0.,12.0,0.,12.0,0.,12.0
1979-07-19 06:45:50.970 ,3,1,0.,12.0,0.,12.0,0.,12.0,0.,12.0
1979-07-19 06:46:02.970 ,0,0,0.,12.0,0.,12.0,0.,12.0,0.,12.0
1979-07-19 06:46:14.970 ,0,0,0.,12.0,0.,12.0,0.,12.0,0.,12.0
1979-07-19 06:46:26.970 ,0,0,0.,12.0,0.,12.0,0.,12.0,0.,12.0
1979-07-19 06:46:38.970 ,0,0,0.,12.0,0.,12.0,0.,12.0,0.,12.0
1979-07-19 06:46:50.970 ,0,1,0.,12.0,0.,12.0,0.,12.0,0.,12.0
1979-07-19 06:47:02.970 ,0,1,0.,12.0,0.,12.0,0.,12.0,0.,12.0
1979-07-19 06:47:14.970 ,3,1,0.,12.0,0.,12.0,0.,12.0,0.,12.0
1979-07-19 06:47:26.970 ,3,1,0.,12.0,0.,12.0,0.,12.0,0.,12.0
1979-07-19 06:47:38.970 ,7,1,0.,12.0,0.,12.0,0.,12.0,0.,12.0
1979-07-19 06:47:50.970 ,7,1,0.,12.0,0.,12.0,0.,12.0,0.,12.0
1979-07-19 06:48:02.970 ,4,1,0.,12.0,0.,12.0,0.,12.0,0.,12.0
1979-07-19 06:48:14.970 ,4,1,0.,12.0,0.,12.0,0.,12.0,0.,12.0
1979-07-19 06:48:26.970 ,0,1,0.,12.0,0.,12.0,0.,12.0,0.,12.0
1979-07-19 06:48:38.970 ,0,1,0.,12.0,0.,12.0,0.,12.0,0.,12.0
1979-07-19 06:48:50.970 ,3,1,0.,12.0,0.,12.0,0.,12.0,0.,12.0
1979-07-19 06:49:02.970 ,3,1,0.,12.0,0.,12.0,0.,12.0,0.,12.0
1979-07-19 06:49:14.970 ,7,1,0.,12.0,0.,12.0,0.,12.0,0.,12.0
1979-07-19 06:49:26.970 ,7,1,0.,12.0,0.,12.0,0.,12.0,0.,12.0
1979-07-19 06:49:38.970 ,4,1,0.,12.0,0.,12.0,0.,12.0,0.,12.0
1979-07-19 06:49:50.970 ,4,1,0.,12.0,0.,12.0,0.,12.0,0.,12.0
1979-07-19 06:50:02.970 ,0,1,0.,12.0,0.,12.0,0.,12.0,0.,12.0
1979-07-19 06:50:14.970 ,0,1,0.,12.0,0.,12.0,0.,12.0,0.,12.0
1979-07-19 06:50:26.970 ,0,0,0.,12.0,0.,12.0,0.,12.0,0.,12.0
1979-07-19 06:50:38.970 ,0,0,0.,12.0,0.,12.0,0.,12.0,0.,12.0
1979-07-19 06:50:50.970 ,7,1,0.,12.0,0.,12.0,0.,12.0,0.,12.0
1979-07-19 06:51:02.970 ,7,1,0.,12.0,0.,12.0,0.,12.0,0.,12.0
1979-07-19 06:51:14.970 ,4,1,0.,12.0,0.,12.0,0.,12.0,0.,12.0
1979-07-19 06:51:26.970 ,4,1,0.,12.0,0.,12.0,0.,12.0,0.,12.0
1979-07-19 06:51:38.970 ,0,1,0.,12.0,0.,12.0,0.,12.0,0.,12.0
1979-07-19 06:51:50.970 ,0,1,0.,12.0,0.,12.0,0.,12.0,0.,12.0
1979-07-19 06:52:02.970 ,3,1,0.,12.0,0.,12.0,0.,12.0,0.,12.0
1979-07-19 06:52:14.970 ,3,1,0.,12.0,0.,12.0,0.,12.0,0.,12.0
1979-07-19 06:52:26.970 ,7,1,0.,12.0,0.,12.0,0.,12.0,0.,12.0
1979-07-19 06:52:38.970 ,7,1,0.,12.0,0.,12.0,0.,12.0,0.,12.0
1979-07-19 06:52:50.970 ,4,1,0.,12.0,0.,12.0,0.,12.0,0.,12.0
1979-07-19 06:53:02.970 ,4,1,0.,12.0,0.,12.0,0.,12.0,0.,12.0
1979-07-19 06:53:14.970 ,0,0,0.,12.0,0.,12.0,0.,12.0,0.,12.0
1979-07-19 06:53:26.970 ,0,0,0.,12.0,0.,12.0,0.,12.0,0.,12.0
1979-07-19 06:53:39.570 ,0,0,0.,12.0,0.,12.0,0.,12.0,0.,12.0
1979-07-19 06:53:51.570 ,0,0,0.,12.0,0.,12.0,0.,12.0,0.,12.0
1979-07-19 06:54:02.970 ,0,0,0.,12.0,0.,12.0,0.,12.0,0.,12.0
1979-07-19 06:54:14.970 ,0,0,0.,12.0,0.,12.0,0.,12.0,0.,12.0
1979-07-19 06:54:26.970 ,5,1,0.,12.0,0.,12.0,0.,12.0,0.,12.0
1979-07-19 06:54:38.970 ,5,1,0.,12.0,0.,12.0,0.,12.0,0.,12.0
1979-07-19 06:54:50.970 ,5,0,0.,12.0,0.,12.0,0.,12.0,0.,12.0
1979-07-19 06:55:02.970 ,5,0,0.,12.0,0.,12.0,0.,12.0,0.,12.0
1979-07-19 06:55:14.970 ,4,1,0.,12.0,0.,12.0,0.,12.0,0.,12.0
1979-07-19 06:55:26.970 ,4,1,0.,12.0,0.,12.0,0.,12.0,0.,12.0
1979-07-19 06:55:38.970 ,4,0,0.,12.0,0.,12.0,0.,12.0,0.,12.0
1979-07-19 06:55:50.970 ,4,0,0.,12.0,0.,12.0,0.,12.0,0.,12.0
1979-07-19 06:56:02.970 ,3,1,0.,12.0,0.,12.0,0.,12.0,0.,12.0
1979-07-19 06:56:14.970 ,3,1,0.,12.0,0.,12.0,0.,12.0,0.,12.0
1979-07-19 06:56:26.970 ,3,0,0.,12.0,0.,12.0,0.,12.0,0.,12.0
1979-07-19 06:56:38.970 ,3,0,1.,12.0,0.,12.0,0.,12.0,0.,12.0
1979-07-19 06:56:50.970 ,2,1,0.,12.0,0.,12.0,0.,12.0,0.,12.0
1979-07-19 06:57:02.970 ,2,1,0.,12.0,0.,12.0,0.,12.0,0.,12.0
1979-07-19 06:57:14.970 ,2,0,0.,12.0,0.,12.0,0.,12.0,0.,12.0
1979-07-19 06:57:26.970 ,2,0,0.,12.0,0.,12.0,0.,12.0,0.,12.0
1979-07-19 06:57:38.970 ,1,1,0.,12.0,0.,12.0,0.,12.0,0.,12.0
1979-07-19 06:57:50.970 ,1,1,0.,12.0,0.,12.0,0.,12.0,0.,12.0
1979-07-19 06:58:02.970 ,1,0,0.,12.0,0.,12.0,0.,12.0,0.,12.0
1979-07-19 06:58:14.970 ,1,0,0.,12.0,0.,12.0,0.,12.0,0.,12.0
1979-07-19 06:58:26.970 ,0,1,0.,12.0,0.,12.0,0.,12.0,0.,12.0
1979-07-19 06:58:38.970 ,0,1,0.,12.0,0.,12.0,0.,12.0,0.,12.0
1979-07-19 06:58:50.970 ,0,0,0.,12.0,0.,12.0,0.,12.0,0.,12.0
1979-07-19 06:59:02.970 ,0,0,0.,12.0,0.,12.0,0.,12.0,0.,12.0
1979-07-19 06:59:14.970 ,0,1,0.,12.0,0.,12.0,0.,12.0,0.,12.0
1979-07-19 06:59:26.970 ,0,1,0.,12.0,0.,12.0,0.,12.0,0.,12.0
1979-07-19 06:59:38.970 ,0,0,0.,12.0,0.,12.0,0.,12.0,0.,12.0
1979-07-19 06:59:50.970 ,0,0,0.,12.0,0.,12.0,0.,12.0,0.,12.0
1979-07-19 07:00:02.960 ,1,1,0.,12.0,0.,12.0,0.,12.0,0.,12.0
1979-07-19 07:00:14.960 ,1,1,0.,12.0,0.,12.0,0.,12.0,0.,12.0
1979-07-19 07:00:26.970 ,1,0,0.,12.0,0.,12.0,0.,12.0,0.,12.0
1979-07-19 07:00:38.970 ,1,0,1.,12.0,0.,12.0,0.,12.0,0.,12.0
1979-07-19 07:00:50.970 ,2,1,0.,12.0,0.,12.0,0.,12.0,0.,12.0
1979-07-19 07:01:02.970 ,2,1,0.,12.0,0.,12.0,0.,12.0,0.,12.0
1979-07-19 07:01:14.970 ,2,0,0.,12.0,0.,12.0,0.,12.0,0.,12.0
1979-07-19 07:01:26.970 ,2,0,0.,12.0,0.,12.0,0.,12.0,0.,12.0
1979-07-19 07:01:38.960 ,3,1,0.,12.0,0.,12.0,0.,12.0,0.,12.0
1979-07-19 07:01:50.970 ,3,1,0.,12.0,0.,12.0,0.,12.0,0.,12.0
1979-07-19 07:02:02.960 ,3,0,0.,12.0,0.,12.0,0.,12.0,0.,12.0
1979-07-19 07:02:14.960 ,3,0,0.,12.0,0.,12.0,0.,12.0,0.,12.0
1979-07-19 07:02:26.970 ,4,1,0.,12.0,0.,12.0,0.,12.0,0.,12.0
1979-07-19 07:02:38.970 ,4,1,0.,12.0,0.,12.0,0.,12.0,0.,12.0
1979-07-19 07:02:50.970 ,4,0,0.,12.0,0.,12.0,0.,12.0,0.,12.0
1979-07-19 07:03:02.970 ,4,0,0.,12.0,0.,12.0,0.,12.0,0.,12.0
1979-07-19 07:03:14.970 ,5,1,0.,12.0,0.,12.0,0.,12.0,0.,12.0
1979-07-19 07:03:26.970 ,5,1,0.,12.0,0.,12.0,0.,12.0,0.,12.0
1979-07-19 07:03:38.970 ,5,0,1.,12.0,0.,12.0,0.,12.0,0.,12.0
1979-07-19 07:03:50.970 ,5,0,0.,12.0,0.,12.0,0.,12.0,0.,12.0
1979-07-19 07:04:02.970 ,6,1,0.,12.0,0.,12.0,0.,12.0,0.,12.0
1979-07-19 07:04:14.970 ,6,1,0.,12.0,0.,12.0,0.,12.0,0.,12.0
1979-07-19 07:04:26.960 ,6,0,0.,12.0,0.,12.0,0.,12.0,0.,12.0
1979-07-19 07:04:38.960 ,6,0,0.,12.0,0.,12.0,0.,12.0,0.,12.0
1979-07-19 07:04:50.960 ,7,1,0.,12.0,0.,12.0,0.,12.0,0.,12.0
1979-07-19 07:05:02.960 ,7,1,0.,12.0,0.,12.0,0.,12.0,0.,12.0
1979-07-19 07:05:14.960 ,7,0,0.,12.0,0.,12.0,0.,12.0,0.,12.0
1979-07-19 07:05:26.960 ,7,0,0.,12.0,0.,12.0,0.,12.0,0.,12.0
1979-07-19 07:05:38.960 ,7,1,0.,12.0,0.,12.0,0.,12.0,0.,12.0
1979-07-19 07:05:50.960 ,7,1,0.,12.0,0.,12.0,0.,12.0,0.,12.0
1979-07-19 07:06:02.960 ,7,0,0.,12.0,0.,12.0,0.,12.0,0.,12.0
1979-07-19 07:06:14.960 ,7,0,0.,12.0,0.,12.0,0.,12.0,0.,12.0
1979-07-19 07:06:26.960 ,6,1,0.,12.0,0.,12.0,0.,12.0,0.,12.0
1979-07-19 07:06:38.960 ,6,1,0.,12.0,0.,12.0,0.,12.0,0.,12.0
1979-07-19 07:06:50.960 ,6,0,0.,12.0,0.,12.0,0.,12.0,0.,12.0
1979-07-19 07:07:02.960 ,6,0,0.,12.0,0.,12.0,0.,12.0,0.,12.0
1979-07-19 07:07:14.960 ,5,1,0.,12.0,0.,12.0,0.,12.0,0.,12.0
1979-07-19 07:07:26.960 ,5,1,0.,12.0,0.,12.0,0.,12.0,0.,12.0
1979-07-19 07:07:38.960 ,5,0,0.,12.0,0.,12.0,0.,12.0,0.,12.0
1979-07-19 07:07:50.960 ,5,0,0.,12.0,0.,12.0,0.,12.0,0.,12.0
1979-07-19 07:08:02.960 ,4,1,0.,12.0,0.,12.0,0.,12.0,0.,12.0
1979-07-19 07:08:14.960 ,4,1,0.,12.0,0.,12.0,0.,12.0,0.,12.0
1979-07-19 07:08:26.960 ,4,0,0.,12.0,0.,12.0,0.,12.0,0.,12.0
1979-07-19 07:08:38.960 ,4,0,0.,12.0,0.,12.0,0.,12.0,0.,12.0
1979-07-19 07:08:50.960 ,3,1,0.,12.0,0.,12.0,0.,12.0,0.,12.0
1979-07-19 07:09:02.960 ,3,1,0.,12.0,0.,12.0,0.,12.0,0.,12.0
1979-07-19 07:09:14.960 ,3,0,0.,12.0,0.,12.0,0.,12.0,0.,12.0
1979-07-19 07:09:26.960 ,3,0,0.,12.0,0.,12.0,0.,12.0,0.,12.0
1979-07-19 07:09:38.960 ,2,1,0.,12.0,0.,12.0,0.,12.0,0.,12.0
1979-07-19 07:09:50.960 ,2,1,0.,12.0,0.,12.0,0.,12.0,0.,12.0
1979-07-19 07:10:02.960 ,2,0,0.,12.0,0.,12.0,0.,12.0,0.,12.0
1979-07-19 07:10:14.960 ,2,0,0.,12.0,0.,12.0,0.,12.0,0.,12.0
1979-07-19 07:10:26.960 ,1,1,0.,12.0,0.,12.0,0.,12.0,0.,12.0
1979-07-19 07:10:38.960 ,1,1,0.,12.0,0.,12.0,0.,12.0,0.,12.0
1979-07-19 07:10:50.960 ,1,0,0.,12.0,0.,12.0,0.,12.0,0.,12.0
1979-07-19 07:11:02.960 ,1,0,0.,12.0,0.,12.0,0.,12.0,0.,12.0
1979-07-19 07:11:14.960 ,0,1,0.,12.0,0.,12.0,0.,12.0,0.,12.0
1979-07-19 07:11:26.960 ,0,1,0.,12.0,0.,12.0,0.,12.0,0.,12.0
1979-07-19 07:11:38.960 ,0,0,0.,12.0,0.,12.0,0.,12.0,0.,12.0
1979-07-19 07:11:50.960 ,0,0,0.,12.0,0.,12.0,0.,12.0,0.,12.0
1979-07-19 07:12:02.960 ,0,1,0.,12.0,0.,12.0,0.,12.0,0.,12.0
1979-07-19 07:12:14.960 ,0,1,0.,12.0,0.,12.0,0.,12.0,0.,12.0
1979-07-19 07:12:26.960 ,0,0,0.,12.0,0.,12.0,0.,12.0,0.,12.0
1979-07-19 07:12:38.960 ,0,0,0.,12.0,0.,12.0,0.,12.0,0.,12.0
1979-07-19 07:12:50.960 ,0,0,,0,,0,,0,,0
1979-07-19 07:13:02.960 ,0,0,0.,12.0,0.,12.0,0.,12.0,0.,12.0
1979-07-19 07:13:14.960 ,0,0,,0,,0,,0,,0
1979-07-19 07:13:26.960 ,0,0,0.,12.0,0.,12.0,0.,12.0,0.,12.0
1979-07-19 07:13:38.960 ,2,1,0.,12.0,0.,12.0,0.,12.0,0.,12.0
1979-07-19 07:13:50.960 ,2,1,0.,12.0,0.,12.0,0.,12.0,0.,12.0
1979-07-19 07:14:02.960 ,2,0,0.,12.0,0.,12.0,0.,12.0,0.,12.0
1979-07-19 07:14:14.960 ,2,0,0.,12.0,0.,12.0,0.,12.0,0.,12.0
1979-07-19 07:14:26.960 ,2,0,0.,12.0,0.,12.0,0.,12.0,0.,12.0
1979-07-19 07:14:38.960 ,2,0,,0,,0,,0,,0
1979-07-19 07:14:50.960 ,3,0,0.,12.0,0.,12.0,0.,12.0,0.,12.0
1979-07-19 07:15:02.960 ,3,0,0.,12.0,0.,12.0,0.,12.0,0.,12.0
1979-07-19 07:15:14.960 ,4,1,0.,12.0,0.,12.0,0.,12.0,0.,12.0
1979-07-19 07:15:26.960 ,4,1,0.,12.0,0.,12.0,0.,12.0,0.,12.0
1979-07-19 07:15:38.960 ,4,0,0.,12.0,0.,12.0,0.,12.0,0.,12.0
1979-07-19 07:15:50.960 ,4,0,0.,12.0,0.,12.0,0.,12.0,0.,12.0
1979-07-19 07:16:02.960 ,5,1,0.,12.0,0.,12.0,0.,12.0,0.,12.0
1979-07-19 07:16:14.960 ,5,1,0.,12.0,0.,12.0,0.,12.0,0.,12.0
1979-07-19 07:16:26.960 ,5,0,1.,12.0,0.,12.0,0.,12.0,0.,12.0
1979-07-19 07:16:38.960 ,5,0,0.,12.0,0.,12.0,0.,12.0,0.,12.0
1979-07-19 07:16:50.960 ,6,1,0.,12.0,0.,12.0,0.,12.0,0.,12.0
1979-07-19 07:17:02.960 ,6,1,0.,12.0,0.,12.0,0.,12.0,0.,12.0
1979-07-19 07:17:14.960 ,6,0,0.,12.0,0.,12.0,0.,12.0,0.,12.0
1979-07-19 07:17:26.960 ,6,0,0.,12.0,0.,12.0,0.,12.0,0.,12.0
1979-07-19 07:17:38.960 ,7,1,0.,12.0,0.,12.0,0.,12.0,0.,12.0
1979-07-19 07:17:50.960 ,7,1,0.,12.0,0.,12.0,0.,12.0,0.,12.0
1979-07-19 07:18:02.960 ,7,0,0.,12.0,0.,12.0,0.,12.0,0.,12.0
1979-07-19 07:18:14.960 ,7,0,0.,12.0,0.,12.0,0.,12.0,0.,12.0
1979-07-19 07:18:26.960 ,7,1,0.,12.0,0.,12.0,0.,12.0,0.,12.0
1979-07-19 07:18:38.960 ,7,1,0.,12.0,0.,12.0,0.,12.0,0.,12.0
1979-07-19 07:18:50.960 ,7,0,0.,12.0,0.,12.0,0.,12.0,0.,12.0
1979-07-19 07:19:02.960 ,7,0,0.,12.0,0.,12.0,0.,12.0,0.,12.0
1979-07-19 07:19:14.960 ,6,1,0.,12.0,0.,12.0,0.,12.0,0.,12.0
1979-07-19 07:19:26.960 ,6,1,0.,12.0,0.,12.0,0.,12.0,0.,12.0
1979-07-19 07:19:38.960 ,6,0,0.,12.0,0.,12.0,0.,12.0,0.,12.0
1979-07-19 07:19:50.960 ,6,0,0.,12.0,0.,12.0,0.,12.0,0.,12.0
1979-07-19 07:20:02.960 ,5,1,0.,12.0,0.,12.0,0.,12.0,0.,12.0
1979-07-19 07:20:14.960 ,5,1,0.,12.0,0.,12.0,0.,12.0,0.,12.0
1979-07-19 07:20:26.960 ,5,0,0.,12.0,0.,12.0,0.,12.0,0.,12.0
1979-07-19 07:20:38.960 ,5,0,0.,12.0,0.,12.0,0.,12.0,0.,12.0
1979-07-19 07:21:38.960 ,0,0,0.,12.0,0.,12.0,0.,12.0,0.,12.0
1979-07-19 07:21:50.960 ,0,0,0.,12.0,0.,12.0,0.,12.0,0.,12.0
1979-07-19 07:22:02.960 ,0,0,0.,12.0,0.,12.0,0.,12.0,0.,12.0
1979-07-19 07:22:14.960 ,0,0,0.,12.0,0.,12.0,0.,12.0,0.,12.0
1979-07-19 07:22:26.960 ,2,1,0.,12.0,0.,12.0,0.,12.0,0.,12.0
1979-07-19 07:22:38.960 ,2,1,0.,12.0,0.,12.0,0.,12.0,0.,12.0
1979-07-19 07:22:50.960 ,2,0,0.,12.0,0.,12.0,0.,12.0,0.,12.0
1979-07-19 07:23:02.960 ,2,0,0.,12.0,0.,12.0,0.,12.0,0.,12.0
1979-07-19 07:23:14.960 ,1,1,0.,12.0,0.,12.0,0.,12.0,0.,12.0
1979-07-19 07:23:26.960 ,1,1,0.,12.0,0.,12.0,0.,12.0,0.,12.0
1979-07-19 07:23:38.960 ,1,0,0.,12.0,0.,12.0,0.,12.0,0.,12.0
1979-07-19 07:23:50.960 ,1,0,0.,12.0,0.,12.0,0.,12.0,0.,12.0
1979-07-19 07:24:02.960 ,0,1,0.,12.0,0.,12.0,0.,12.0,0.,12.0
1979-07-19 07:24:14.960 ,0,1,0.,12.0,0.,12.0,0.,12.0,0.,12.0
1979-07-19 07:24:26.960 ,0,0,0.,12.0,0.,12.0,0.,12.0,0.,12.0
1979-07-19 07:24:38.960 ,0,0,0.,12.0,0.,12.0,0.,12.0,0.,12.0
1979-07-19 07:24:50.960 ,0,1,0.,12.0,0.,12.0,0.,12.0,0.,12.0
1979-07-19 07:25:02.960 ,0,1,0.,12.0,0.,12.0,0.,12.0,0.,12.0
1979-07-19 07:25:14.960 ,0,0,0.,12.0,0.,12.0,0.,12.0,0.,12.0
1979-07-19 07:25:26.960 ,0,0,0.,12.0,0.,12.0,0.,12.0,0.,12.0
1979-07-19 07:25:38.960 ,1,1,0.,12.0,0.,12.0,0.,12.0,0.,12.0
1979-07-19 07:25:50.960 ,1,1,0.,12.0,0.,12.0,0.,12.0,0.,12.0
1979-07-19 07:26:02.960 ,1,0,0.,12.0,0.,12.0,0.,12.0,0.,12.0
1979-07-19 07:26:14.960 ,1,0,0.,12.0,0.,12.0,0.,12.0,0.,12.0